N3EG Weather Reports


time (UTC)temp
C
wind
direction
speed
KPH
gust
KPH
rain 1hr
cm
rain 24hr
cm
rain mn
cm
humidity
%
barometer
mb
20260506224503 16 306 4.8 20.9 0.00 0.00 0.00 77 1022.0
20260506224003 16 285 8.0 20.9 0.00 0.00 0.00 76 1022.0
20260506223502 16 304 6.4 17.7 0.00 0.00 0.00 76 1022.0
20260506223003 16 311 9.7 17.7 0.00 0.00 0.00 74 1022.1
20260506222503 16 292 9.7 16.1 0.00 0.00 0.00 73 1022.1
20260506222002 16 295 4.8 16.1 0.00 0.00 0.00 74 1022.1
20260506221503 16 294 6.4 16.1 0.00 0.00 0.00 74 1022.1
20260506221002 16 293 4.8 17.7 0.00 0.00 0.00 75 1022.2
20260506220502 16 299 9.7 17.7 0.00 0.00 0.00 74 1022.1
20260506220003 16 313 8.0 16.1 0.00 0.00 0.00 75 1022.2
20260506215502 16 308 4.8 16.1 0.00 0.00 0.00 75 1022.1
20260506215002 16 331 9.7 16.1 0.00 0.00 0.00 74 1022.1
20260506214503 16 325 8.0 16.1 0.00 0.00 0.00 74 1022.1
20260506214002 16 278 3.2 16.1 0.00 0.00 0.00 75 1022.1
20260506213502 16 294 6.4 16.1 0.00 0.00 0.00 76 1022.1
20260506213003 16 315 8.0 16.1 0.00 0.00 0.00 75 1022.1
20260506212502 16 337 9.7 16.1 0.00 0.00 0.00 75 1022.1
20260506212002 16 323 9.7 16.1 0.00 0.00 0.00 74 1022.1
20260506211503 16 316 8.0 16.1 0.00 0.00 0.00 74 1022.1
20260506211002 16 311 6.4 16.1 0.00 0.00 0.00 75 1022.1
20260506210502 16 304 4.8 17.7 0.00 0.00 0.00 75 1022.0
20260506210003 16 329 9.7 17.7 0.00 0.00 0.00 74 1022.1
20260506205502 16 286 4.8 14.5 0.00 0.00 0.00 75 1022.0
20260506205002 16 279 3.2 14.5 0.00 0.00 0.00 76 1022.0
20260506204503 16 294 4.8 14.5 0.00 0.00 0.00 75 1022.0
20260506204002 16 299 6.4 14.5 0.00 0.00 0.00 76 1022.0
20260506203502 16 328 8.0 14.5 0.00 0.00 0.00 75 1022.0
20260506203003 16 292 6.4 17.7 0.00 0.00 0.00 76 1022.0
20260506202502 16 331 9.7 17.7 0.00 0.00 0.00 75 1022.0
20260506202002 16 328 8.0 16.1 0.00 0.00 0.00 75 1022.0
20260506201503 16 319 6.4 16.1 0.00 0.00 0.00 77 1022.1
20260506201002 16 277 3.2 16.1 0.00 0.00 0.00 78 1022.1
20260506200503 16 292 4.8 12.9 0.00 0.00 0.00 77 1022.0
20260506200003 15 297 4.8 14.5 0.00 0.00 0.00 78 1022.1
20260506195502 15 310 3.2 14.5 0.00 0.00 0.00 78 1022.1
20260506195003 15 324 4.8 14.5 0.00 0.00 0.00 79 1022.1
20260506194503 15 315 3.2 14.5 0.00 0.00 0.00 78 1022.0
20260506194002 15 302 3.2 9.7 0.00 0.00 0.00 78 1022.1
20260506193503 15 291 3.2 12.9 0.00 0.00 0.00 77 1022.1
20260506193003 15 290 4.8 16.1 0.00 0.00 0.00 79 1022.0
20260506192502 15 281 4.8 16.1 0.00 0.00 0.00 78 1022.1
20260506192003 15 319 4.8 12.9 0.00 0.00 0.00 78 1022.1
20260506191503 15 322 6.4 12.9 0.00 0.00 0.00 77 1022.0
20260506191002 15 322 6.4 12.9 0.00 0.00 0.00 77 1021.9
20260506190503 15 305 4.8 11.3 0.00 0.00 0.00 77 1021.9
20260506190003 15 316 3.2 11.3 0.00 0.00 0.00 77 1021.9
20260506185502 15 304 4.8 14.5 0.00 0.00 0.00 76 1021.8
20260506185003 15 288 3.2 14.5 0.00 0.00 0.00 77 1022.1
20260506184503 15 296 6.4 14.5 0.00 0.00 0.00 77 1022.0
20260506184002 15 282 3.2 9.7 0.00 0.00 0.00 77 1022.0
20260506183503 15 327 1.6 12.9 0.00 0.00 0.00 78 1022.0
20260506183003 15 315 6.4 12.9 0.00 0.00 0.00 76 1021.9
20260506182502 15 295 3.2 12.9 0.00 0.00 0.00 77 1021.9
20260506182003 15 318 4.8 12.9 0.00 0.00 0.00 79 1021.9
20260506181502 15 305 3.2 9.7 0.00 0.00 0.00 78 1021.9
20260506181003 15 292 3.2 12.9 0.00 0.00 0.00 79 1021.9
20260506180503 14 312 3.2 12.9 0.00 0.00 0.00 79 1021.8
20260506180003 14 266 1.6 12.9 0.00 0.00 0.00 79 1021.9
20260506175503 14 301 3.2 12.9 0.00 0.00 0.00 80 1021.9
20260506175003 14 324 1.6 9.7 0.00 0.00 0.00 80 1021.9
20260506174502 14 324 3.2 9.7 0.00 0.00 0.00 80 1021.9
20260506174003 14 321 4.8 11.3 0.00 0.00 0.00 80 1021.8
20260506173503 14 309 4.8 11.3 0.00 0.00 0.00 80 1021.8
20260506173002 14 288 3.2 8.0 0.00 0.00 0.00 80 1021.8
20260506172503 14 318 3.2 6.4 0.00 0.00 0.00 81 1021.7
20260506172003 14 297 1.6 6.4 0.00 0.00 0.00 80 1021.7
20260506171502 14 231 1.6 4.8 0.00 0.00 0.00 81 1021.5
20260506171003 14 96 1.6 3.2 0.00 0.00 0.00 82 1021.6
20260506170502 14 249 1.6 3.2 0.00 0.00 0.00 82 1021.5
20260506170003 14 153 1.6 3.2 0.00 0.00 0.00 81 1021.5
20260506165502 14 251 1.6 3.2 0.00 0.00 0.00 81 1021.6
20260506165002 14 200 1.6 4.8 0.00 0.00 0.00 81 1021.6
20260506164503 13 237 1.6 4.8 0.00 0.00 0.00 80 1021.5
20260506164002 13 240 1.6 4.8 0.00 0.00 0.00 81 1021.5
20260506163502 13 217 1.6 3.2 0.00 0.00 0.00 81 1021.5
20260506163003 13 244 1.6 4.8 0.00 0.00 0.00 82 1021.4
20260506162502 13 284 1.6 6.4 0.00 0.00 0.00 81 1021.4
20260506162002 13 254 1.6 8.0 0.00 0.00 0.00 81 1021.5
20260506161503 13 330 3.2 12.9 0.00 0.00 0.00 81 1021.5
20260506161002 13 330 4.8 12.9 0.00 0.00 0.00 81 1021.6
20260506160503 13 302 3.2 8.0 0.00 0.00 0.00 81 1021.5
20260506160003 13 292 4.8 8.0 0.00 0.00 0.00 81 1021.6
20260506155502 13 294 1.6 8.0 0.00 0.00 0.00 82 1021.5
20260506155003 13 302 1.6 8.0 0.00 0.00 0.00 82 1021.4
20260506154502 13 293 1.6 8.0 0.00 0.00 0.00 83 1021.3
20260506154002 13 315 3.2 9.7 0.00 0.00 0.00 83 1021.4
20260506153503 13 308 4.8 9.7 0.00 0.00 0.00 83 1021.4
20260506153002 13 321 3.2 14.5 0.00 0.00 0.00 82 1021.4
20260506152502 13 318 3.2 14.5 0.00 0.00 0.00 82 1021.2
20260506152003 13 317 4.8 9.7 0.00 0.00 0.00 82 1021.3
20260506151502 13 312 4.8 8.0 0.00 0.00 0.00 83 1021.3
20260506151002 13 245 1.6 4.8 0.00 0.00 0.00 83 1021.0
20260506150503 13 269 3.2 6.4 0.00 0.00 0.00 83 1021.0
20260506150002 13 227 0.0 6.4 0.00 0.00 0.00 83 1020.9
20260506145503 13 271 1.6 4.8 0.00 0.00 0.00 84 1020.8
20260506145003 13 272 1.6 4.8 0.00 0.00 0.00 84 1020.6
20260506144502 12 240 1.6 3.2 0.00 0.00 0.00 85 1020.7
20260506144002 12 257 0.0 3.2 0.00 0.00 0.00 86 1020.8
20260506143503 12 259 0.0 3.2 0.00 0.00 0.00 86 1020.8
20260506143002 12 263 0.0 3.2 0.00 0.00 0.00 87 1020.9
20260506142503 12 258 1.6 3.2 0.00 0.00 0.00 87 1021.2
20260506142003 12 249 0.0 3.2 0.00 0.00 0.00 86 1021.1
20260506141502 12 279 0.0 4.8 0.00 0.00 0.00 87 1021.0
20260506141002 12 274 1.6 4.8 0.00 0.00 0.00 87 1021.1
20260506140503 12 309 0.0 6.4 0.00 0.00 0.00 87 1021.1
20260506140002 12 282 1.6 6.4 0.00 0.00 0.00 86 1021.0
20260506135503 12 297 3.2 6.4 0.00 0.00 0.00 87 1020.9
20260506135003 12 228 0.0 3.2 0.00 0.00 0.00 87 1020.9
20260506134502 12 271 0.0 4.8 0.00 0.00 0.00 87 1020.9
20260506134002 12 271 0.0 4.8 0.00 0.00 0.00 87 1020.8
20260506133503 12 255 1.6 4.8 0.00 0.00 0.00 88 1020.8
20260506133002 12 256 0.0 4.8 0.00 0.00 0.00 88 1020.7
20260506132502 12 267 1.6 4.8 0.00 0.00 0.00 88 1020.6
20260506132003 12 273 0.0 3.2 0.00 0.00 0.00 88 1020.5
20260506131502 12 278 0.0 3.2 0.00 0.00 0.00 88 1020.3
20260506131003 12 275 0.0 1.6 0.00 0.00 0.00 88 1020.4
20260506130503 12 275 0.0 3.2 0.00 0.00 0.00 88 1020.5
20260506130002 12 273 1.6 3.2 0.00 0.00 0.00 88 1020.4
20260506125503 12 231 0.0 3.2 0.00 0.00 0.00 88 1020.3
20260506125002 12 226 0.0 3.2 0.00 0.00 0.00 88 1020.2
20260506124502 12 225 0.0 4.8 0.00 0.00 0.00 88 1020.1
20260506124003 12 231 1.6 6.4 0.00 0.00 0.00 88 1020.2
20260506123503 12 256 1.6 6.4 0.00 0.00 0.00 88 1020.1
20260506123002 12 208 1.6 4.8 0.00 0.00 0.00 88 1020.1
20260506122503 12 200 1.6 4.8 0.00 0.00 0.00 88 1020.0
20260506122003 12 301 1.6 4.8 0.00 0.00 0.00 88 1020.1
20260506121502 12 266 1.6 4.8 0.00 0.00 0.00 88 1020.0
20260506121003 12 196 0.0 4.8 0.00 0.00 0.00 88 1020.0
20260506120503 12 197 1.6 4.8 0.00 0.00 0.00 88 1020.0
20260506120002 12 201 0.0 3.2 0.00 0.00 0.00 88 1020.0
20260506115503 12 201 0.0 3.2 0.00 0.00 0.00 88 1020.0
20260506115002 12 225 0.0 3.2 0.00 0.00 0.00 88 1020.0
20260506114502 12 220 1.6 3.2 0.00 0.00 0.00 88 1020.0
20260506114003 12 218 1.6 3.2 0.00 0.00 0.00 88 1019.9
20260506113502 12 218 0.0 3.2 0.00 0.00 0.00 88 1019.9
20260506113002 12 232 0.0 3.2 0.00 0.00 0.00 88 1019.9
20260506112503 12 271 0.0 3.2 0.00 0.00 0.00 88 1019.9
20260506112002 12 265 0.0 4.8 0.00 0.00 0.00 88 1020.0
20260506111502 12 246 0.0 4.8 0.00 0.00 0.00 88 1019.9
20260506111003 12 281 1.6 3.2 0.00 0.00 0.00 87 1020.0
20260506110502 12 272 0.0 3.2 0.00 0.00 0.00 87 1019.9
20260506110002 12 271 0.0 3.2 0.00 0.00 0.00 87 1019.9
20260506105503 12 272 0.0 3.2 0.00 0.00 0.00 87 1019.8
20260506105002 12 255 0.0 3.2 0.00 0.00 0.00 87 1019.7
20260506104503 12 246 0.0 3.2 0.00 0.00 0.00 87 1019.7
20260506104003 12 246 0.0 3.2 0.00 0.00 0.00 87 1019.6
20260506103502 12 246 0.0 4.8 0.00 0.00 0.00 87 1019.6
20260506103003 12 272 1.6 4.8 0.00 0.00 0.00 87 1019.5
20260506102503 12 264 0.0 3.2 0.00 0.00 0.00 87 1019.4
20260506102002 12 317 0.0 6.4 0.00 0.00 0.00 87 1019.5
20260506101503 13 318 3.2 6.4 0.00 0.00 0.00 87 1019.4
20260506101003 12 283 1.6 4.8 0.00 0.00 0.00 87 1019.4
20260506100502 13 241 1.6 4.8 0.00 0.00 0.00 87 1019.3
20260506100003 13 211 1.6 3.2 0.00 0.00 0.00 87 1019.2
20260506095503 13 202 0.0 3.2 0.00 0.00 0.00 87 1019.2
20260506095002 13 249 1.6 4.8 0.00 0.00 0.00 87 1019.1
20260506094503 13 254 1.6 4.8 0.00 0.00 0.00 87 1019.1
20260506094002 13 239 1.6 9.7 0.00 0.00 0.00 87 1019.0
20260506093502 13 297 4.8 11.3 0.00 0.00 0.00 87 1019.0
20260506093003 13 294 4.8 11.3 0.00 0.00 0.00 87 1019.0
20260506092502 13 292 3.2 6.4 0.00 0.00 0.00 87 1019.0
20260506092002 13 300 0.0 6.4 0.00 0.00 0.00 87 1018.9
20260506091503 13 295 1.6 6.4 0.00 0.00 0.00 87 1018.8
20260506091002 13 313 3.2 9.7 0.00 0.00 0.00 87 1018.8
20260506090502 13 321 4.8 9.7 0.00 0.00 0.00 87 1018.8
20260506090003 13 296 3.2 6.4 0.00 0.00 0.00 87 1018.7
20260506085502 13 253 1.6 6.4 0.00 0.00 0.00 87 1018.8
20260506085003 13 279 1.6 4.8 0.00 0.00 0.00 87 1018.9
20260506084503 13 315 0.0 4.8 0.00 0.00 0.00 88 1018.8
20260506084002 13 256 0.0 1.6 0.00 0.00 0.00 88 1018.8
20260506083503 13 256 0.0 3.2 0.00 0.00 0.00 88 1018.7
20260506083003 13 264 0.0 3.2 0.00 0.00 0.00 88 1018.7
20260506082502 13 323 1.6 3.2 0.00 0.00 0.00 88 1018.7
20260506082003 13 325 0.0 4.8 0.00 0.00 0.00 88 1018.7
20260506081503 13 299 3.2 4.8 0.00 0.00 0.00 88 1018.7
20260506081002 13 259 1.6 3.2 0.00 0.00 0.00 88 1018.6
20260506080503 13 261 1.6 3.2 0.00 0.00 0.00 88 1018.6
20260506073503 13 267 0.0 3.2 0.00 0.00 0.00 87 1018.4
20260506073002 13 266 1.6 3.2 0.00 0.00 0.00 87 1018.3
20260506072502 13 258 0.0 3.2 0.00 0.00 0.00 87 1018.2
20260506072003 13 259 1.6 8.0 0.00 0.00 0.00 87 1018.2
20260506071502 13 255 1.6 8.0 0.00 0.00 0.00 87 1018.1
20260506071003 13 254 0.0 4.8 0.00 0.00 0.00 87 1018.2
20260506070503 13 178 1.6 4.8 0.00 0.00 0.00 87 1018.2
20260506062503 13 164 1.6 3.2 0.00 0.00 0.00 87 1017.8
20260506062002 13 164 0.0 3.2 0.00 0.00 0.00 87 1017.8
20260506061503 13 164 1.6 3.2 0.00 0.00 0.00 87 1017.7
20260506061003 13 135 1.6 3.2 0.00 0.00 0.00 87 1017.8
20260506060502 13 271 1.6 3.2 0.00 0.00 0.00 87 1017.9
20260506051003 13 215 1.6 12.9 0.00 0.00 0.00 85 1017.7
20260506050502 13 239 1.6 12.9 0.00 0.00 0.00 85 1017.7
20260506045004 13 190 1.6 6.4 0.00 0.00 0.00 85 1017.6
20260506044502 13 273 1.6 6.4 0.00 0.00 0.00 85 1017.6
20260506044002 13 210 3.2 9.7 0.00 0.00 0.00 85 1017.6
20260506043503 13 238 3.2 9.7 0.00 0.00 0.00 85 1017.5
20260506043003 13 285 4.8 11.3 0.00 0.00 0.00 85 1017.4
20260506042502 13 267 3.2 12.9 0.00 0.00 0.00 85 1017.3
20260506042003 13 234 1.6 12.9 0.00 0.00 0.00 85 1017.2
20260506041502 13 282 1.6 6.4 0.00 0.00 0.00 84 1017.1
20260506041002 13 217 0.0 4.8 0.00 0.00 0.00 84 1016.9
20260506040503 13 256 1.6 8.0 0.00 0.00 0.00 84 1016.9
20260506040003 13 280 1.6 8.0 0.00 0.00 0.00 83 1016.8
20260506035502 13 306 0.0 9.7 0.00 0.00 0.00 83 1016.8
20260506035003 13 297 3.2 9.7 0.00 0.00 0.00 83 1016.7
20260506034502 14 296 4.8 17.7 0.00 0.00 0.00 82 1016.6
20260506034003 14 294 4.8 17.7 0.00 0.00 0.00 82 1016.5
20260506033503 14 301 4.8 16.1 0.00 0.00 0.00 82 1016.5
20260506033002 14 286 3.2 16.1 0.00 0.00 0.00 81 1016.4
20260506032503 15 293 3.2 16.1 0.00 0.00 0.00 81 1016.4
20260506032003 15 293 6.4 16.1 0.00 0.00 0.00 81 1016.3
20260506031502 15 286 4.8 14.5 0.00 0.00 0.00 80 1016.3
20260506031002 15 289 1.6 6.4 0.00 0.00 0.00 80 1016.3
20260506030503 15 269 1.6 8.0 0.00 0.00 0.00 80 1016.2
20260506030002 15 302 4.8 9.7 0.00 0.00 0.00 79 1016.1
20260506025502 15 287 1.6 9.7 0.00 0.00 0.00 79 1016.1
20260506025003 16 274 1.6 9.7 0.00 0.00 0.00 78 1016.1
20260506024502 16 297 1.6 11.3 0.00 0.00 0.00 78 1016.0
20260506024003 16 299 4.8 11.3 0.00 0.00 0.00 77 1015.9
20260506023503 16 280 1.6 9.7 0.00 0.00 0.00 77 1015.9
20260506023002 16 302 3.2 9.7 0.00 0.00 0.00 77 1015.8
20260506022503 16 271 1.6 12.9 0.00 0.00 0.00 77 1015.8
20260506022003 16 299 3.2 12.9 0.00 0.00 0.00 77 1015.8
20260506021502 16 281 1.6 11.3 0.00 0.00 0.00 77 1015.9
20260506021003 17 284 3.2 11.3 0.00 0.00 0.00 77 1015.9
20260506020503 17 292 0.0 9.7 0.00 0.00 0.00 76 1015.9
20260506020002 17 277 1.6 14.5 0.00 0.00 0.00 76 1015.8
20260506015503 17 310 6.4 14.5 0.00 0.00 0.00 76 1015.8
20260506015003 17 296 4.8 12.9 0.00 0.00 0.00 75 1015.9
20260506014502 17 306 3.2 12.9 0.00 0.00 0.00 76 1015.9
20260506014003 17 282 3.2 12.9 0.00 0.00 0.00 75 1015.8
20260506013503 17 307 3.2 12.9 0.00 0.00 0.00 75 1015.7
20260506013002 17 292 4.8 14.5 0.00 0.00 0.00 74 1015.8
20260506012503 17 311 6.4 14.5 0.00 0.00 0.00 73 1015.8
20260506012003 18 307 4.8 12.9 0.00 0.00 0.00 73 1015.7
20260506011502 18 284 1.6 12.9 0.00 0.00 0.00 73 1015.6
20260506011003 18 314 6.4 12.9 0.00 0.00 0.00 72 1015.6
20260506010503 18 309 4.8 12.9 0.00 0.00 0.00 72 1015.7
20260506010002 18 281 3.2 9.7 0.00 0.00 0.00 72 1015.7
20260506005503 18 306 3.2 9.7 0.00 0.00 0.00 73 1015.8
20260506005003 18 338 1.6 6.4 0.00 0.00 0.00 75 1015.6
20260506004503 18 312 3.2 8.0 0.00 0.00 0.00 74 1015.8
20260506004003 18 311 1.6 8.0 0.00 0.00 0.00 76 1015.9
20260506003502 18 336 4.8 8.0 0.00 0.00 0.00 74 1015.8
20260506003002 17 243 3.2 8.0 0.00 0.00 0.00 75 1015.9
20260506002503 17 297 4.8 9.7 0.00 0.00 0.00 75 1015.9
20260506002002 17 332 4.8 9.7 0.00 0.00 0.00 75 1015.9
20260506001502 17 320 3.2 9.7 0.00 0.00 0.00 75 1016.0
20260506001003 17 324 4.8 9.7 0.00 0.00 0.00 76 1016.1
20260506000502 17 311 4.8 9.7 0.00 0.00 0.00 75 1016.1
20260506000002 17 321 4.8 9.7 0.00 0.00 0.00 76 1016.0
20260505235503 17 310 3.2 9.7 0.00 0.00 0.00 75 1016.1
20260505235002 17 321 4.8 12.9 0.00 0.00 0.00 76 1016.1
20260505234503 17 314 3.2 12.9 0.00 0.00 0.00 75 1016.2
20260505234003 17 327 3.2 8.0 0.00 0.00 0.00 76 1016.2
20260505233502 17 304 1.6 12.9 0.00 0.00 0.00 75 1016.2
20260505233003 17 341 6.4 12.9 0.00 0.00 0.00 75 1016.3
20260505232503 17 329 3.2 6.4 0.00 0.00 0.00 75 1016.3
20260505232002 17 308 4.8 6.4 0.00 0.00 0.00 74 1016.4
20260505231503 17 283 1.6 8.0 0.00 0.00 0.00 74 1016.4
20260505231003 17 311 3.2 8.0 0.00 0.00 0.00 75 1016.5
20260505230502 17 317 3.2 12.9 0.00 0.00 0.00 75 1016.6
20260505230003 17 323 4.8 12.9 0.00 0.00 0.00 75 1016.5
20260505225502 17 342 3.2 8.0 0.00 0.00 0.00 75 1016.5
20260505225002 17 288 1.6 17.7 0.00 0.00 0.00 74 1016.6